Gustavus, AK

11:42 AM AKST on January 18, 2017 (GMT -0900)
Gustavus

Weather History for PAGS - March, 2013

Change the Weather History Date:

Thursday, March 14, 2013

  Actual Average Record
Temperature  
Mean Temperature 22 °F -  
Max Temperature 33 °F 41 °F 48 °F (1998)
Min Temperature 10 °F 27 °F 5 °F (2002)
Degree Days  
Heating Degree Days 44    
Moisture  
Dew Point 6 °F    
Average Humidity 51    
Maximum Humidity 86    
Minimum Humidity 28    
Precipitation  
Precipitation 0.00 in - - ()
Sea Level Pressure  
Sea Level Pressure 29.94 in    
Wind  
Wind Speed 4 mph (North)    
Max Wind Speed 13 mph    
Max Gust Speed 16 mph    
Visibility 10 miles    
Events      
Averages and records for this station are not official NWS values.
T = Trace of Precipitation, MM = Missing Value Source: NWS Daily Summary

Daily Weather History Graph

Daily Weather History Graph

Search for Another Location

Airport or City:

Trip Planner

Search our weather history database for the weather conditions in past years. The results will help you decide how hot, cold, wet, or windy it might be!

Date:

Astronomy

Mar. 14, 2013 Rise Set
Actual Time 7:20 AM AKDT 7:04 PM AKDT
Civil Twilight 6:41 AM AKDT 7:44 PM AKDT
Nautical Twilight 5:54 AM AKDT 8:30 PM AKDT
Astronomical Twilight 5:05 AM AKDT 9:20 PM AKDT
Moon 7:51 AM AKDT (3/14) 11:24 PM AKDT (3/14)
Length of Visible Light 13h 02m
Length of Day
11h 43m
Waxing Crescent, 10% of the Moon is Illuminated
Mar 14
Waxing Crescent
Mar 19
First Quarter
Mar 27
Full
Apr 2
Last Quarter
Apr 10
New

Hourly Weather History & Observations

Time (AKDT) Temp. Windchill Dew Point Humidity Pressure Visibility Wind Dir Wind Speed Gust Speed Precip Events Conditions
12:16 AM 17.6 °F 12.3 °F 3.2 °F 53% 30.01 in 10.0 mi NNW 3.5 mph - N/A   Clear
12:36 AM 17.6 °F 9.3 °F 3.2 °F 53% 30.00 in 10.0 mi NNW 5.8 mph - N/A   Clear
12:56 AM 17.6 °F 10.7 °F 3.2 °F 53% 30.00 in 10.0 mi NNW 4.6 mph - N/A   Clear
1:16 AM 17.6 °F 12.3 °F 1.4 °F 49% 30.00 in 10.0 mi NNW 3.5 mph - N/A   Clear
1:36 AM 15.8 °F 10.2 °F 3.2 °F 58% 30.00 in 10.0 mi North 3.5 mph - N/A   Clear
1:56 AM 15.8 °F 8.6 °F 6.8 °F 68% 30.01 in 10.0 mi NNW 4.6 mph - N/A   Clear
2:16 AM 15.8 °F 7.2 °F 3.2 °F 58% 30.01 in 10.0 mi NNW 5.8 mph - N/A   Clear
2:36 AM 15.8 °F 7.2 °F 3.2 °F 58% 30.01 in 10.0 mi NNW 5.8 mph - N/A   Clear
2:56 AM 15.8 °F 10.2 °F 6.8 °F 68% 30.01 in 10.0 mi NNW 3.5 mph - N/A   Clear
3:16 AM 14.0 °F - 5.0 °F 67% 30.01 in 10.0 mi Calm Calm - N/A   Clear
3:36 AM 12.2 °F - 6.8 °F 79% 30.01 in 10.0 mi Calm Calm - N/A   Clear
3:56 AM 14.0 °F - 8.6 °F 79% 30.01 in 10.0 mi Calm Calm - N/A   Clear
4:16 AM 12.2 °F - 3.2 °F 67% 30.00 in 10.0 mi Calm Calm - N/A   Clear
4:36 AM 12.2 °F 6.1 °F 5.0 °F 73% 30.00 in 10.0 mi North 3.5 mph - N/A   Clear
4:56 AM 12.2 °F 4.3 °F 8.6 °F 85% 29.99 in 10.0 mi NNW 4.6 mph - N/A   Clear
5:16 AM 10.4 °F 4.0 °F 3.2 °F 73% 29.99 in 10.0 mi North 3.5 mph - N/A   Clear
5:36 AM 10.4 °F - 6.8 °F 85% 29.99 in 10.0 mi Calm Calm - N/A   Clear
5:56 AM 12.2 °F 6.1 °F 6.8 °F 79% 29.98 in 10.0 mi North 3.5 mph - N/A   Clear
6:16 AM 10.4 °F 4.0 °F 3.2 °F 73% 29.98 in 10.0 mi North 3.5 mph - N/A   Clear
6:36 AM 12.2 °F 6.1 °F 6.8 °F 79% 29.97 in 10.0 mi North 3.5 mph - N/A   Clear
6:56 AM 12.2 °F - 6.8 °F 79% 29.97 in 10.0 mi Calm Calm - N/A   Clear
7:16 AM 12.2 °F - 5.0 °F 73% 29.97 in 10.0 mi Calm Calm - N/A   Clear
7:36 AM 12.2 °F - 6.8 °F 79% 29.97 in 10.0 mi Calm Calm - N/A   Clear
7:56 AM 12.2 °F - 8.6 °F 85% 29.97 in 10.0 mi Calm Calm - N/A   Clear
8:16 AM 12.2 °F - 8.6 °F 85% 29.97 in 10.0 mi Calm Calm - N/A   Clear
8:36 AM 12.2 °F - 8.6 °F 85% 29.96 in 10.0 mi Calm Calm - N/A   Clear
8:56 AM 15.8 °F - 12.2 °F 86% 29.96 in 10.0 mi Calm Calm - N/A   Clear
9:16 AM 19.4 °F - 12.2 °F 74% 29.96 in 10.0 mi Calm Calm - N/A   Clear
9:36 AM 23.0 °F - 12.2 °F 63% 29.96 in 10.0 mi Calm Calm - N/A   Clear
9:56 AM 24.8 °F - 12.2 °F 59% 29.95 in 10.0 mi Calm Calm - N/A   Clear
10:16 AM 26.6 °F 22.6 °F 10.4 °F 51% 29.95 in 10.0 mi NNE 3.5 mph - N/A   Clear
10:36 AM 28.4 °F - 10.4 °F 47% 29.95 in 10.0 mi Calm Calm - N/A   Clear
10:56 AM 28.4 °F - 8.6 °F 43% 29.94 in 10.0 mi Calm Calm - N/A   Clear
11:16 AM 28.4 °F 23.3 °F 6.8 °F 40% 29.94 in 10.0 mi SE 4.6 mph - N/A   Clear
11:36 AM 30.2 °F - 6.8 °F 37% 29.94 in 10.0 mi Calm Calm - N/A   Clear
11:56 AM 30.2 °F 25.4 °F 6.8 °F 37% 29.94 in 10.0 mi SE 4.6 mph - N/A   Clear
12:16 PM 30.2 °F - 8.6 °F 40% 29.94 in 10.0 mi Calm Calm - N/A   Clear
12:36 PM 32.0 °F 28.7 °F 6.8 °F 35% 29.93 in 10.0 mi WSW 3.5 mph - N/A   Clear
12:56 PM 32.0 °F 26.4 °F 8.6 °F 38% 29.93 in 10.0 mi South 5.8 mph - N/A   Clear
1:16 PM 32.0 °F 28.7 °F 8.6 °F 38% 29.92 in 10.0 mi SE 3.5 mph - N/A   Clear
1:36 PM 32.0 °F - 8.6 °F 38% 29.92 in 10.0 mi Calm Calm - N/A   Clear
1:56 PM 33.8 °F 27.0 °F 6.8 °F 32% 29.91 in 10.0 mi NE 8.1 mph - N/A   Clear
2:16 PM 33.8 °F 24.8 °F 3.2 °F 28% 29.90 in 10.0 mi East 12.7 mph 16.1 mph N/A   Clear
2:36 PM 33.8 °F 27.0 °F 5.0 °F 30% 29.89 in 10.0 mi ENE 8.1 mph - N/A   Clear
2:56 PM 33.8 °F 28.6 °F 3.2 °F 28% 29.89 in 10.0 mi North 5.8 mph - N/A   Clear
3:16 PM 33.8 °F 27.0 °F 6.8 °F 32% 29.88 in 10.0 mi ENE 8.1 mph - N/A   Clear
3:36 PM 33.8 °F 26.4 °F 3.2 °F 28% 29.88 in 10.0 mi NE 9.2 mph - N/A   Clear
3:56 PM 33.8 °F 25.8 °F 5.0 °F 30% 29.87 in 10.0 mi NE 10.4 mph - N/A   Clear
4:16 PM 33.8 °F 27.0 °F 5.0 °F 30% 29.87 in 10.0 mi ENE 8.1 mph - N/A   Clear
4:36 PM 33.8 °F 27.0 °F 5.0 °F 30% 29.87 in 10.0 mi NE 8.1 mph - N/A   Clear
4:56 PM 33.8 °F 27.0 °F 5.0 °F 30% 29.87 in 10.0 mi NE 8.1 mph - N/A   Clear
5:16 PM 33.8 °F 28.6 °F 5.0 °F 30% 29.87 in 10.0 mi ENE 5.8 mph - N/A   Clear
5:36 PM 33.8 °F 26.4 °F 3.2 °F 28% 29.87 in 10.0 mi NE 9.2 mph - N/A   Clear
5:56 PM 32.0 °F 23.6 °F 3.2 °F 30% 29.87 in 10.0 mi ENE 10.4 mph - N/A   Clear
6:16 PM 30.2 °F 22.6 °F 3.2 °F 32% 29.87 in 10.0 mi NE 8.1 mph - N/A   Clear
6:36 PM 30.2 °F 21.3 °F 5.0 °F 34% 29.88 in 10.0 mi NNE 10.4 mph - N/A   Clear
6:56 PM 30.2 °F 23.4 °F 3.2 °F 32% 29.88 in 10.0 mi NNE 6.9 mph - N/A   Clear
7:16 PM 28.4 °F 24.6 °F 3.2 °F 34% 29.89 in 10.0 mi North 3.5 mph - N/A   Clear
7:36 PM 28.4 °F 23.3 °F 5.0 °F 37% 29.89 in 10.0 mi NNW 4.6 mph - N/A   Clear
7:56 PM 28.4 °F 19.7 °F 5.0 °F 37% 29.89 in 10.0 mi North 9.2 mph - N/A   Clear
8:16 PM 28.4 °F 22.2 °F 5.0 °F 37% 29.89 in 10.0 mi NNW 5.8 mph - N/A   Clear
8:36 PM 28.4 °F - 5.0 °F 37% 29.90 in 10.0 mi Calm Calm - N/A   Clear
8:56 PM 28.4 °F 24.6 °F 5.0 °F 37% 29.90 in 10.0 mi North 3.5 mph - N/A   Clear
9:16 PM 26.6 °F 20.0 °F 6.8 °F 43% 29.90 in 10.0 mi North 5.8 mph - N/A   Clear
9:36 PM 28.4 °F - 6.8 °F 40% 29.90 in 10.0 mi Calm Calm - N/A   Clear
9:56 PM 26.6 °F 21.2 °F 6.8 °F 43% 29.91 in 10.0 mi NNW 4.6 mph - N/A   Clear
10:16 PM 26.6 °F - 6.8 °F 43% 29.91 in 10.0 mi Calm Calm - N/A   Mostly Cloudy
10:36 PM 26.6 °F 22.6 °F 6.8 °F 43% 29.91 in 10.0 mi NW 3.5 mph - N/A   Mostly Cloudy
10:56 PM 28.4 °F 24.6 °F 6.8 °F 40% 29.91 in 10.0 mi NNE 3.5 mph - N/A   Overcast
11:16 PM 28.4 °F 24.6 °F 6.8 °F 40% 29.91 in 10.0 mi NW 3.5 mph - N/A   Overcast
11:36 PM 28.4 °F 24.6 °F 6.8 °F 40% 29.92 in 10.0 mi NW 3.5 mph - N/A   Mostly Cloudy
11:56 PM 26.6 °F 22.6 °F 6.8 °F 43% 29.92 in 10.0 mi NNE 3.5 mph - N/A   Overcast